Location: Unspecified
(35.6961°N, 0.0000°E)
Time: 18:54:39
(UTC+00:00)

POLYITAN 1 - Visible Passes

Search period start: 07 August 2020 00:00
Search period end: 17 August 2020 00:00
Orbit: 590 x 612 km, 97.9° (Epoch: 07 August)

Date Brightness Start Highest point End Pass type
(mag) Time Alt. Az. Time Alt. Az. Time Alt. Az.
07 Aug ? 01:55:40 10° NNW 01:55:55 11° NNW 01:55:55 11° NNW visible
08 Aug ? 00:30:30 10° NNE 00:30:41 11° NNE 00:30:41 11° NNE visible
09 Aug ? 00:41:52 10° NNE 00:42:13 12° NNE 00:42:13 12° NNE visible
10 Aug ? 00:53:17 10° NNE 00:53:45 13° NNE 00:53:45 13° NNE visible
11 Aug ? 01:04:47 10° N 01:05:18 13° N 01:05:18 13° N visible
12 Aug ? 01:16:22 10° N 01:16:49 13° N 01:16:49 13° N visible
13 Aug ? 01:28:01 10° N 01:28:21 12° N 01:28:21 12° N visible
14 Aug ? 01:39:45 10° NNW 01:39:53 11° NNW 01:39:53 11° NNW visible
